Wetterdaten: Samstag, 18.08.2012
Datum Zeit Temp. I. Temp. A. Boden 5 cm Feuchte A. Sonne Luftdruck Regen Wind Sonnenschein
18.08.2012 00:00 22,4 C 18,6 C 16,9 C 72 % 0 % 1016 hPa 0,0 l/m 0,0 km/h (0 Bft) 0 min
18.08.2012 00:03 22,4 C 18,5 C 16,7 C 72 % 0 % 1016 hPa 0,0 l/m 0,0 km/h (0 Bft) 0 min
18.08.2012 00:06 22,4 C 18,5 C 16,6 C 72 % 0 % 1016 hPa 0,0 l/m 0,0 km/h (0 Bft) 0 min
18.08.2012 00:09 22,4 C 18,4 C 16,7 C 73 % 0 % 1016 hPa 0,0 l/m 0,0 km/h (0 Bft) 0 min
18.08.2012 00:12 22,4 C 18,4 C 16,7 C 73 % 0 % 1016 hPa 0,0 l/m 0,0 km/h (0 Bft) 0 min
18.08.2012 00:15 22,4 C 18,4 C 16,7 C 73 % 0 % 1016 hPa 0,0 l/m 0,0 km/h (0 Bft) 0 min
18.08.2012 00:18 22,4 C 18,4 C 16,7 C 73 % 0 % 1016 hPa 0,0 l/m 0,0 km/h (0 Bft) 0 min
18.08.2012 00:21 22,4 C 18,4 C 16,7 C 73 % 0 % 1016 hPa 0,0 l/m 0,0 km/h (0 Bft) 0 min
18.08.2012 00:24 22,4 C 18,4 C 16,6 C 73 % 0 % 1016 hPa 0,0 l/m 0,0 km/h (0 Bft) 0 min
18.08.2012 00:27 22,4 C 18,4 C 16,7 C 73 % 0 % 1016 hPa 0,0 l/m 0,0 km/h (0 Bft) 0 min
18.08.2012 00:30 22,4 C 18,4 C 16,7 C 74 % 0 % 1016 hPa 0,0 l/m 0,0 km/h (0 Bft) 0 min
18.08.2012 00:33 22,4 C 18,4 C 16,7 C 74 % 0 % 1016 hPa 0,0 l/m 0,0 km/h (0 Bft) 0 min
18.08.2012 00:36 22,4 C 18,4 C 16,6 C 73 % 0 % 1016 hPa 0,0 l/m 0,0 km/h (0 Bft) 0 min
18.08.2012 00:39 22,4 C 18,4 C 16,6 C 73 % 0 % 1016 hPa 0,0 l/m 0,0 km/h (0 Bft) 0 min
18.08.2012 00:42 22,4 C 18,3 C 16,6 C 74 % 0 % 1016 hPa 0,0 l/m 0,0 km/h (0 Bft) 0 min
18.08.2012 00:45 22,4 C 18,3 C 16,5 C 74 % 0 % 1016 hPa 0,0 l/m 0,0 km/h (0 Bft) 0 min
18.08.2012 00:48 22,4 C 18,3 C 16,6 C 74 % 0 % 1016 hPa 0,0 l/m 0,0 km/h (0 Bft) 0 min
18.08.2012 00:51 22,4 C 18,2 C 16,6 C 74 % 0 % 1016 hPa 0,0 l/m 0,0 km/h (0 Bft) 0 min
18.08.2012 00:54 22,4 C 18,2 C 16,5 C 74 % 0 % 1016 hPa 0,0 l/m 0,0 km/h (0 Bft) 0 min
18.08.2012 00:57 22,4 C 18,2 C 16,5 C 74 % 0 % 1016 hPa 0,0 l/m 0,0 km/h (0 Bft) 0 min
18.08.2012 01:00 22,4 C 18,1 C 16,6 C 74 % 0 % 1016 hPa 0,0 l/m 0,0 km/h (0 Bft) 0 min
18.08.2012 01:03 22,4 C 18,0 C 16,6 C 74 % 0 % 1016 hPa 0,0 l/m 0,0 km/h (0 Bft) 0 min
18.08.2012 01:06 22,4 C 17,9 C 16,4 C 75 % 0 % 1016 hPa 0,0 l/m 0,0 km/h (0 Bft) 0 min
18.08.2012 01:09 22,4 C 17,7 C 16,4 C 75 % 0 % 1016 hPa 0,0 l/m 0,0 km/h (0 Bft) 0 min
18.08.2012 01:12 22,4 C 17,6 C 16,6 C 75 % 0 % 1016 hPa 0,0 l/m 0,0 km/h (0 Bft) 0 min
18.08.2012 01:15 22,4 C 17,6 C 16,5 C 76 % 0 % 1016 hPa 0,0 l/m 0,0 km/h (0 Bft) 0 min
18.08.2012 01:18 22,4 C 17,6 C 16,6 C 76 % 0 % 1016 hPa 0,0 l/m 0,0 km/h (0 Bft) 0 min
18.08.2012 01:21 22,4 C 17,5 C 16,5 C 77 % 0 % 1016 hPa 0,0 l/m 0,0 km/h (0 Bft) 0 min
18.08.2012 01:24 22,4 C 17,5 C 16,4 C 77 % 0 % 1016 hPa 0,0 l/m 0,0 km/h (0 Bft) 0 min
18.08.2012 01:27 22,4 C 17,5 C 16,4 C 77 % 0 % 1016 hPa 0,0 l/m 0,0 km/h (0 Bft) 0 min
18.08.2012 01:30 22,4 C 17,5 C 16,4 C 77 % 0 % 1016 hPa 0,0 l/m 0,0 km/h (0 Bft) 0 min
18.08.2012 01:33 22,4 C 17,5 C 16,3 C 77 % 0 % 1016 hPa 0,0 l/m 0,0 km/h (0 Bft) 0 min
18.08.2012 01:36 22,4 C 17,3 C 16,4 C 77 % 0 % 1016 hPa 0,0 l/m 0,0 km/h (0 Bft) 0 min
18.08.2012 01:39 22,4 C 17,2 C 16,1 C 78 % 0 % 1016 hPa 0,0 l/m 0,0 km/h (0 Bft) 0 min
18.08.2012 01:42 22,4 C 17,1 C 16,1 C 78 % 0 % 1016 hPa 0,0 l/m 0,0 km/h (0 Bft) 0 min
18.08.2012 01:45 22,4 C 17,1 C 16,1 C 78 % 0 % 1016 hPa 0,0 l/m 0,0 km/h (0 Bft) 0 min
18.08.2012 01:48 22,4 C 17,0 C 16,1 C 78 % 0 % 1016 hPa 0,0 l/m 0,0 km/h (0 Bft) 0 min
18.08.2012 01:51 22,4 C 17,0 C 16,1 C 78 % 0 % 1016 hPa 0,0 l/m 0,0 km/h (0 Bft) 0 min
18.08.2012 01:54 22,4 C 17,0 C 16,1 C 79 % 0 % 1016 hPa 0,0 l/m 1,6 km/h (1 Bft) 0 min
18.08.2012 01:57 22,4 C 17,0 C 16,0 C 78 % 0 % 1016 hPa 0,0 l/m 3,1 km/h (1 Bft) 0 min
18.08.2012 02:00 22,4 C 16,9 C 16,0 C 78 % 0 % 1016 hPa 0,0 l/m 3,7 km/h (1 Bft) 0 min
18.08.2012 02:03 22,4 C 16,9 C 16,0 C 79 % 0 % 1016 hPa 0,0 l/m 1,8 km/h (1 Bft) 0 min
18.08.2012 02:06 22,4 C 16,9 C 16,0 C 79 % 0 % 1016 hPa 0,0 l/m 0,4 km/h (0 Bft) 0 min
18.08.2012 02:09 22,4 C 16,9 C 16,0 C 79 % 0 % 1016 hPa 0,0 l/m 1,6 km/h (1 Bft) 0 min
18.08.2012 02:12 22,4 C 16,9 C 16,0 C 79 % 0 % 1016 hPa 0,0 l/m 1,6 km/h (1 Bft) 0 min
18.08.2012 02:15 22,4 C 16,9 C 16,0 C 79 % 0 % 1016 hPa 0,0 l/m 3,5 km/h (1 Bft) 0 min
18.08.2012 02:18 22,4 C 16,8 C 15,9 C 79 % 0 % 1016 hPa 0,0 l/m 3,6 km/h (1 Bft) 0 min
18.08.2012 02:21 22,4 C 16,8 C 15,8 C 79 % 0 % 1016 hPa 0,0 l/m 1,6 km/h (1 Bft) 0 min
18.08.2012 02:24 22,4 C 16,7 C 15,8 C 80 % 0 % 1016 hPa 0,0 l/m 2,9 km/h (1 Bft) 0 min
18.08.2012 02:27 22,4 C 16,7 C 15,8 C 80 % 0 % 1016 hPa 0,0 l/m 2,4 km/h (1 Bft) 0 min
18.08.2012 02:30 22,4 C 16,7 C 15,8 C 80 % 0 % 1016 hPa 0,0 l/m 0,5 km/h (0 Bft) 0 min
18.08.2012 02:33 22,4 C 16,7 C 15,8 C 81 % 0 % 1016 hPa 0,0 l/m 0,0 km/h (0 Bft) 0 min
18.08.2012 02:36 22,4 C 16,8 C 15,7 C 81 % 0 % 1016 hPa 0,0 l/m 0,0 km/h (0 Bft) 0 min
18.08.2012 02:39 22,4 C 16,8 C 15,7 C 80 % 0 % 1016 hPa 0,0 l/m 0,0 km/h (0 Bft) 0 min
18.08.2012 02:42 22,4 C 16,8 C 15,8 C 81 % 0 % 1016 hPa 0,0 l/m 0,0 km/h (0 Bft) 0 min
18.08.2012 02:45 22,4 C 16,8 C 15,7 C 81 % 0 % 1016 hPa 0,0 l/m 0,0 km/h (0 Bft) 0 min
18.08.2012 02:48 22,4 C 16,8 C 15,8 C 81 % 0 % 1016 hPa 0,0 l/m 0,0 km/h (0 Bft) 0 min
18.08.2012 02:51 22,4 C 16,8 C 15,7 C 81 % 0 % 1016 hPa 0,0 l/m 0,6 km/h (0 Bft) 0 min
18.08.2012 02:54 22,4 C 16,8 C 15,7 C 81 % 0 % 1016 hPa 0,0 l/m 1,2 km/h (1 Bft) 0 min
18.08.2012 02:57 22,4 C 16,8 C 15,8 C 81 % 0 % 1016 hPa 0,0 l/m 2,7 km/h (1 Bft) 0 min
18.08.2012 03:00 22,4 C 16,8 C 15,8 C 81 % 0 % 1016 hPa 0,0 l/m 1,0 km/h (0 Bft) 0 min
18.08.2012 03:03 22,4 C 16,8 C 15,7 C 81 % 0 % 1016 hPa 0,0 l/m 1,0 km/h (0 Bft) 0 min
18.08.2012 03:06 22,4 C 16,8 C 15,7 C 81 % 0 % 1016 hPa 0,0 l/m 0,0 km/h (0 Bft) 0 min
18.08.2012 03:09 22,4 C 16,7 C 15,8 C 81 % 0 % 1016 hPa 0,0 l/m 0,0 km/h (0 Bft) 0 min
18.08.2012 03:12 22,4 C 16,7 C 15,7 C 81 % 0 % 1016 hPa 0,0 l/m 0,0 km/h (0 Bft) 0 min
18.08.2012 03:15 22,4 C 16,6 C 15,5 C 82 % 0 % 1016 hPa 0,0 l/m 0,0 km/h (0 Bft) 0 min
18.08.2012 03:18 22,4 C 16,5 C 15,4 C 82 % 0 % 1016 hPa 0,0 l/m 0,0 km/h (0 Bft) 0 min
18.08.2012 03:21 22,4 C 16,5 C 15,5 C 82 % 0 % 1016 hPa 0,0 l/m 0,0 km/h (0 Bft) 0 min
18.08.2012 03:24 22,4 C 16,4 C 15,5 C 82 % 0 % 1016 hPa 0,0 l/m 0,0 km/h (0 Bft) 0 min
18.08.2012 03:27 22,4 C 16,4 C 15,5 C 83 % 0 % 1016 hPa 0,0 l/m 0,0 km/h (0 Bft) 0 min
18.08.2012 03:30 22,4 C 16,4 C 15,6 C 83 % 0 % 1016 hPa 0,0 l/m 0,0 km/h (0 Bft) 0 min
18.08.2012 03:33 22,4 C 16,4 C 15,5 C 83 % 0 % 1016 hPa 0,0 l/m 0,0 km/h (0 Bft) 0 min
18.08.2012 03:36 22,4 C 16,4 C 15,4 C 83 % 0 % 1016 hPa 0,0 l/m 0,0 km/h (0 Bft) 0 min
18.08.2012 03:39 22,4 C 16,4 C 15,4 C 83 % 0 % 1016 hPa 0,0 l/m 0,0 km/h (0 Bft) 0 min
18.08.2012 03:42 22,4 C 16,4 C 15,4 C 83 % 0 % 1016 hPa 0,0 l/m 0,0 km/h (0 Bft) 0 min
18.08.2012 03:45 22,4 C 16,4 C 15,3 C 83 % 0 % 1016 hPa 0,0 l/m 0,0 km/h (0 Bft) 0 min
18.08.2012 03:48 22,4 C 16,4 C 15,4 C 83 % 0 % 1016 hPa 0,0 l/m 0,0 km/h (0 Bft) 0 min
18.08.2012 03:51 22,4 C 16,4 C 15,3 C 83 % 0 % 1016 hPa 0,0 l/m 0,0 km/h (0 Bft) 0 min
18.08.2012 03:54 22,4 C 16,4 C 15,3 C 83 % 0 % 1016 hPa 0,0 l/m 0,0 km/h (0 Bft) 0 min
18.08.2012 03:57 22,4 C 16,4 C 15,3 C 83 % 0 % 1016 hPa 0,0 l/m 0,0 km/h (0 Bft) 0 min
18.08.2012 04:00 22,4 C 16,3 C 15,4 C 83 % 0 % 1016 hPa 0,0 l/m 0,0 km/h (0 Bft) 0 min
18.08.2012 04:03 22,4 C 16,3 C 15,4 C 83 % 0 % 1016 hPa 0,0 l/m 0,0 km/h (0 Bft) 0 min
18.08.2012 04:06 22,4 C 16,3 C 15,3 C 84 % 0 % 1016 hPa 0,0 l/m 0,0 km/h (0 Bft) 0 min
18.08.2012 04:09 22,4 C 16,2 C 15,3 C 84 % 0 % 1016 hPa 0,0 l/m 0,0 km/h (0 Bft) 0 min
18.08.2012 04:12 22,4 C 16,2 C 15,4 C 84 % 0 % 1016 hPa 0,0 l/m 0,0 km/h (0 Bft) 0 min
18.08.2012 04:15 22,4 C 16,1 C 15,2 C 84 % 0 % 1016 hPa 0,0 l/m 0,0 km/h (0 Bft) 0 min
18.08.2012 04:18 22,4 C 16,1 C 15,2 C 85 % 0 % 1016 hPa 0,0 l/m 0,0 km/h (0 Bft) 0 min
18.08.2012 04:21 22,4 C 16,1 C 15,3 C 85 % 0 % 1016 hPa 0,0 l/m 0,0 km/h (0 Bft) 0 min
18.08.2012 04:24 22,4 C 16,1 C 15,3 C 85 % 0 % 1016 hPa 0,0 l/m 0,0 km/h (0 Bft) 0 min
18.08.2012 04:27 22,4 C 16,1 C 15,1 C 85 % 0 % 1016 hPa 0,0 l/m 0,0 km/h (0 Bft) 0 min
18.08.2012 04:30 22,4 C 16,1 C 15,2 C 85 % 0 % 1016 hPa 0,0 l/m 0,0 km/h (0 Bft) 0 min
18.08.2012 04:33 22,2 C 16,1 C 15,2 C 85 % 0 % 1016 hPa 0,0 l/m 0,0 km/h (0 Bft) 0 min
18.08.2012 04:36 21,9 C 16,1 C 15,2 C 85 % 0 % 1016 hPa 0,0 l/m 0,0 km/h (0 Bft) 0 min
18.08.2012 04:39 21,6 C 16,1 C 15,2 C 85 % 0 % 1016 hPa 0,0 l/m 0,0 km/h (0 Bft) 0 min
18.08.2012 04:42 21,6 C 16,1 C 15,1 C 85 % 0 % 1016 hPa 0,0 l/m 0,0 km/h (0 Bft) 0 min
18.08.2012 04:45 20,9 C 16,1 C 15,2 C 85 % 0 % 1016 hPa 0,0 l/m 0,0 km/h (0 Bft) 0 min
18.08.2012 04:48 20,8 C 16,0 C 15,1 C 85 % 0 % 1016 hPa 0,0 l/m 0,0 km/h (0 Bft) 0 min
18.08.2012 04:51 21,0 C 16,0 C 15,1 C 85 % 0 % 1016 hPa 0,0 l/m 0,0 km/h (0 Bft) 0 min
18.08.2012 04:55 21,1 C 16,0 C 15,2 C 85 % 0 % 1016 hPa 0,0 l/m 0,0 km/h (0 Bft) 0 min
18.08.2012 04:58 21,2 C 16,0 C 15,1 C 85 % 0 % 1016 hPa 0,0 l/m 0,0 km/h (0 Bft) 0 min
18.08.2012 05:01 21,4 C 16,0 C 15,0 C 85 % 0 % 1016 hPa 0,0 l/m 0,0 km/h (0 Bft) 0 min
18.08.2012 05:04 21,4 C 16,0 C 15,1 C 85 % 0 % 1016 hPa 0,0 l/m 0,0 km/h (0 Bft) 0 min
18.08.2012 05:07 21,4 C 16,0 C 15,2 C 85 % 0 % 1016 hPa 0,0 l/m 0,0 km/h (0 Bft) 0 min
18.08.2012 05:10 21,4 C 15,9 C 15,2 C 85 % 0 % 1016 hPa 0,0 l/m 0,0 km/h (0 Bft) 0 min
18.08.2012 05:13 21,4 C 15,9 C 15,2 C 85 % 0 % 1016 hPa 0,0 l/m 0,0 km/h (0 Bft) 0 min
18.08.2012 05:16 21,4 C 15,9 C 15,0 C 85 % 0 % 1016 hPa 0,0 l/m 0,0 km/h (0 Bft) 0 min
18.08.2012 05:19 21,4 C 15,9 C 15,1 C 85 % 0 % 1016 hPa 0,0 l/m 0,0 km/h (0 Bft) 0 min
18.08.2012 05:22 21,4 C 15,9 C 15,1 C 85 % 0 % 1016 hPa 0,0 l/m 0,0 km/h (0 Bft) 0 min
18.08.2012 05:25 21,4 C 15,9 C 14,9 C 85 % 0 % 1016 hPa 0,0 l/m 0,0 km/h (0 Bft) 0 min
18.08.2012 05:28 21,4 C 15,9 C 14,9 C 85 % 0 % 1016 hPa 0,0 l/m 0,0 km/h (0 Bft) 0 min
18.08.2012 05:31 21,4 C 15,9 C 15,0 C 85 % 0 % 1016 hPa 0,0 l/m 0,0 km/h (0 Bft) 0 min
18.08.2012 05:34 21,4 C 15,9 C 15,0 C 85 % 0 % 1016 hPa 0,0 l/m 0,0 km/h (0 Bft) 0 min
18.08.2012 05:37 21,4 C 15,8 C 15,0 C 86 % 0 % 1016 hPa 0,0 l/m 0,0 km/h (0 Bft) 0 min
18.08.2012 05:40 21,7 C 15,8 C 15,0 C 86 % 0 % 1016 hPa 0,0 l/m 0,0 km/h (0 Bft) 0 min
18.08.2012 05:43 21,6 C 15,8 C 15,0 C 86 % 0 % 1016 hPa 0,0 l/m 0,0 km/h (0 Bft) 0 min
18.08.2012 05:46 21,5 C 15,7 C 15,0 C 86 % 0 % 1016 hPa 0,0 l/m 0,0 km/h (0 Bft) 0 min
18.08.2012 05:49 21,4 C 15,7 C 15,0 C 86 % 0 % 1016 hPa 0,0 l/m 0,0 km/h (0 Bft) 0 min
18.08.2012 05:52 21,2 C 15,7 C 15,0 C 86 % 0 % 1016 hPa 0,0 l/m 0,0 km/h (0 Bft) 0 min
18.08.2012 05:55 21,2 C 15,7 C 14,8 C 86 % 0 % 1016 hPa 0,0 l/m 0,0 km/h (0 Bft) 0 min
18.08.2012 05:58 21,1 C 15,7 C 14,8 C 86 % 0 % 1016 hPa 0,0 l/m 0,0 km/h (0 Bft) 0 min
18.08.2012 06:01 21,0 C 15,6 C 14,9 C 86 % 0 % 1016 hPa 0,0 l/m 0,0 km/h (0 Bft) 0 min
18.08.2012 06:04 21,0 C 15,6 C 14,9 C 86 % 1 % 1016 hPa 0,0 l/m 0,0 km/h (0 Bft) 0 min
18.08.2012 06:07 21,0 C 15,6 C 14,8 C 86 % 1 % 1016 hPa 0,0 l/m 0,0 km/h (0 Bft) 0 min
18.08.2012 06:10 20,9 C 15,5 C 14,9 C 86 % 1 % 1016 hPa 0,0 l/m 0,0 km/h (0 Bft) 0 min
18.08.2012 06:13 20,8 C 15,5 C 14,9 C 86 % 2 % 1016 hPa 0,0 l/m 0,0 km/h (0 Bft) 0 min
18.08.2012 06:16 20,7 C 15,5 C 14,7 C 86 % 2 % 1016 hPa 0,0 l/m 0,0 km/h (0 Bft) 3 min
18.08.2012 06:19 20,7 C 15,4 C 14,8 C 87 % 3 % 1016 hPa 0,0 l/m 0,0 km/h (0 Bft) 0 min
18.08.2012 06:22 20,7 C 15,4 C 14,7 C 87 % 3 % 1016 hPa 0,0 l/m 0,0 km/h (0 Bft) 0 min
18.08.2012 06:25 20,5 C 15,3 C 14,7 C 87 % 3 % 1016 hPa 0,0 l/m 0,0 km/h (0 Bft) 0 min
18.08.2012 06:28 20,3 C 15,3 C 14,8 C 87 % 4 % 1016 hPa 0,0 l/m 0,0 km/h (0 Bft) 0 min
18.08.2012 06:31 20,0 C 15,3 C 14,8 C 87 % 4 % 1016 hPa 0,0 l/m 0,0 km/h (0 Bft) 0 min
18.08.2012 06:34 20,0 C 15,3 C 14,7 C 87 % 4 % 1016 hPa 0,0 l/m 0,0 km/h (0 Bft) 0 min
18.08.2012 06:37 19,7 C 15,3 C 14,8 C 87 % 5 % 1016 hPa 0,0 l/m 0,0 km/h (0 Bft) 0 min
18.08.2012 06:40 19,7 C 15,3 C 15,0 C 87 % 5 % 1016 hPa 0,0 l/m 0,0 km/h (0 Bft) 0 min
18.08.2012 06:43 19,6 C 15,3 C 15,0 C 87 % 5 % 1016 hPa 0,0 l/m 0,0 km/h (0 Bft) 0 min
18.08.2012 06:46 19,6 C 15,3 C 15,1 C 88 % 6 % 1016 hPa 0,0 l/m 0,0 km/h (0 Bft) 0 min
18.08.2012 06:49 19,6 C 15,3 C 15,1 C 88 % 6 % 1016 hPa 0,0 l/m 0,0 km/h (0 Bft) 0 min
18.08.2012 06:52 19,6 C 15,4 C 15,0 C 87 % 6 % 1016 hPa 0,0 l/m 0,0 km/h (0 Bft) 0 min
18.08.2012 06:55 19,6 C 15,4 C 15,1 C 87 % 7 % 1016 hPa 0,0 l/m 0,0 km/h (0 Bft) 0 min
18.08.2012 06:58 19,6 C 15,5 C 15,1 C 87 % 7 % 1016 hPa 0,0 l/m 0,0 km/h (0 Bft) 0 min
18.08.2012 07:01 19,6 C 15,5 C 15,2 C 87 % 7 % 1016 hPa 0,0 l/m 0,0 km/h (0 Bft) 0 min
18.08.2012 07:04 19,6 C 15,6 C 15,3 C 87 % 7 % 1016 hPa 0,0 l/m 0,0 km/h (0 Bft) 0 min
18.08.2012 07:07 19,6 C 15,7 C 15,3 C 88 % 8 % 1016 hPa 0,0 l/m 0,0 km/h (0 Bft) 0 min
18.08.2012 07:10 19,6 C 15,7 C 15,3 C 88 % 8 % 1016 hPa 0,0 l/m 0,0 km/h (0 Bft) 0 min
18.08.2012 07:13 19,7 C 15,8 C 15,4 C 88 % 8 % 1016 hPa 0,0 l/m 0,0 km/h (0 Bft) 0 min
18.08.2012 07:16 19,8 C 15,9 C 15,6 C 88 % 8 % 1016 hPa 0,0 l/m 0,0 km/h (0 Bft) 0 min
18.08.2012 07:19 19,9 C 15,9 C 15,7 C 88 % 9 % 1016 hPa 0,0 l/m 0,0 km/h (0 Bft) 0 min
18.08.2012 07:22 20,0 C 16,0 C 15,7 C 88 % 9 % 1016 hPa 0,0 l/m 0,0 km/h (0 Bft) 0 min
18.08.2012 07:25 19,9 C 16,1 C 15,9 C 88 % 9 % 1016 hPa 0,0 l/m 0,0 km/h (0 Bft) 0 min
18.08.2012 07:28 19,8 C 16,1 C 16,1 C 88 % 9 % 1016 hPa 0,0 l/m 0,0 km/h (0 Bft) 0 min
18.08.2012 07:31 19,6 C 16,2 C 16,2 C 88 % 9 % 1016 hPa 0,0 l/m 0,2 km/h (0 Bft) 0 min
18.08.2012 07:34 19,6 C 16,3 C 16,3 C 88 % 10 % 1016 hPa 0,0 l/m 0,1 km/h (0 Bft) 0 min
18.08.2012 07:37 19,6 C 16,3 C 16,4 C 88 % 10 % 1016 hPa 0,0 l/m 0,7 km/h (0 Bft) 0 min
18.08.2012 07:40 19,5 C 16,4 C 16,5 C 87 % 10 % 1016 hPa 0,0 l/m 0,4 km/h (0 Bft) 0 min
18.08.2012 07:43 19,5 C 16,5 C 16,7 C 87 % 10 % 1017 hPa 0,0 l/m 2,2 km/h (1 Bft) 0 min
18.08.2012 07:46 19,5 C 16,7 C 16,7 C 87 % 10 % 1017 hPa 0,0 l/m 2,2 km/h (1 Bft) 0 min
18.08.2012 07:49 19,6 C 16,8 C 16,9 C 86 % 11 % 1017 hPa 0,0 l/m 0,9 km/h (0 Bft) 0 min
18.08.2012 07:52 19,5 C 17,0 C 17,0 C 86 % 11 % 1017 hPa 0,0 l/m 1,8 km/h (1 Bft) 0 min
18.08.2012 07:55 19,6 C 17,1 C 17,1 C 86 % 11 % 1017 hPa 0,0 l/m 0,0 km/h (0 Bft) 0 min
18.08.2012 07:58 19,5 C 17,1 C 17,3 C 86 % 11 % 1017 hPa 0,0 l/m 0,1 km/h (0 Bft) 0 min
18.08.2012 08:01 19,6 C 17,2 C 17,4 C 85 % 11 % 1017 hPa 0,0 l/m 0,0 km/h (0 Bft) 0 min
18.08.2012 08:04 19,6 C 17,3 C 18,0 C 85 % 13 % 1017 hPa 0,0 l/m 4,8 km/h (1 Bft) 0 min
18.08.2012 08:07 19,7 C 17,4 C 19,4 C 84 % 13 % 1017 hPa 0,0 l/m 4,9 km/h (1 Bft) 0 min
18.08.2012 08:10 19,8 C 17,6 C 20,0 C 84 % 23 % 1017 hPa 0,0 l/m 4,3 km/h (1 Bft) 0 min
18.08.2012 08:13 19,8 C 17,7 C 20,5 C 83 % 27 % 1017 hPa 0,0 l/m 5,4 km/h (1 Bft) 0 min
18.08.2012 08:16 20,0 C 17,8 C 21,3 C 82 % 27 % 1017 hPa 0,0 l/m 5,0 km/h (1 Bft) 0 min
18.08.2012 08:19 20,1 C 17,9 C 21,2 C 82 % 16 % 1017 hPa 0,0 l/m 6,2 km/h (2 Bft) 0 min
18.08.2012 08:22 20,1 C 18,1 C 21,1 C 82 % 15 % 1017 hPa 0,0 l/m 4,5 km/h (1 Bft) 0 min
18.08.2012 08:25 20,2 C 18,2 C 20,8 C 82 % 16 % 1017 hPa 0,0 l/m 6,5 km/h (2 Bft) 0 min
18.08.2012 08:28 20,2 C 18,3 C 20,5 C 82 % 16 % 1017 hPa 0,0 l/m 6,0 km/h (2 Bft) 0 min
18.08.2012 08:31 20,2 C 18,4 C 20,1 C 81 % 21 % 1017 hPa 0,0 l/m 6,6 km/h (2 Bft) 0 min
18.08.2012 08:34 20,3 C 18,4 C 19,8 C 81 % 23 % 1017 hPa 0,0 l/m 6,5 km/h (2 Bft) 0 min
18.08.2012 08:37 20,3 C 18,5 C 19,8 C 81 % 19 % 1017 hPa 0,0 l/m 5,7 km/h (1 Bft) 0 min
18.08.2012 08:40 20,3 C 18,6 C 19,4 C 81 % 20 % 1017 hPa 0,0 l/m 8,8 km/h (2 Bft) 0 min
18.08.2012 08:43 20,3 C 18,7 C 19,5 C 80 % 20 % 1017 hPa 0,0 l/m 6,3 km/h (2 Bft) 0 min
18.08.2012 08:46 20,4 C 18,7 C 19,7 C 80 % 48 % 1017 hPa 0,0 l/m 8,1 km/h (2 Bft) 3 min
18.08.2012 08:49 20,5 C 18,7 C 19,8 C 80 % 48 % 1017 hPa 0,0 l/m 8,3 km/h (2 Bft) 3 min
18.08.2012 08:52 20,6 C 18,9 C 19,9 C 79 % 36 % 1017 hPa 0,0 l/m 9,7 km/h (2 Bft) 0 min
18.08.2012 08:55 20,8 C 19,0 C 20,5 C 79 % 36 % 1017 hPa 0,0 l/m 6,6 km/h (2 Bft) 0 min
18.08.2012 08:58 21,0 C 19,1 C 21,0 C 79 % 37 % 1017 hPa 0,0 l/m 8,4 km/h (2 Bft) 0 min
18.08.2012 09:01 21,0 C 19,2 C 20,6 C 78 % 37 % 1017 hPa 0,0 l/m 6,5 km/h (2 Bft) 0 min
18.08.2012 09:04 21,2 C 19,3 C 20,6 C 78 % 55 % 1017 hPa 0,0 l/m 11,5 km/h (2 Bft) 3 min
18.08.2012 09:07 21,2 C 19,5 C 20,6 C 77 % 55 % 1017 hPa 0,0 l/m 11,0 km/h (2 Bft) 3 min
18.08.2012 09:10 21,2 C 19,5 C 20,3 C 76 % 55 % 1017 hPa 0,0 l/m 11,5 km/h (2 Bft) 3 min
18.08.2012 09:13 21,3 C 19,7 C 20,8 C 75 % 50 % 1017 hPa 0,0 l/m 11,5 km/h (2 Bft) 3 min
18.08.2012 09:16 21,4 C 19,6 C 20,7 C 73 % 50 % 1017 hPa 0,0 l/m 12,5 km/h (3 Bft) 3 min
18.08.2012 09:19 21,4 C 19,7 C 21,2 C 73 % 32 % 1017 hPa 0,0 l/m 11,5 km/h (2 Bft) 0 min
18.08.2012 09:22 21,6 C 19,8 C 22,0 C 72 % 29 % 1017 hPa 0,0 l/m 10,0 km/h (2 Bft) 0 min
18.08.2012 09:25 21,6 C 19,9 C 22,5 C 72 % 24 % 1017 hPa 0,0 l/m 7,0 km/h (2 Bft) 0 min
18.08.2012 09:28 21,6 C 20,0 C 22,2 C 72 % 26 % 1017 hPa 0,0 l/m 11,6 km/h (2 Bft) 0 min
18.08.2012 09:31 21,7 C 20,1 C 22,6 C 72 % 26 % 1017 hPa 0,0 l/m 10,8 km/h (2 Bft) 0 min
18.08.2012 09:34 21,6 C 20,4 C 22,3 C 72 % 26 % 1017 hPa 0,0 l/m 12,2 km/h (2 Bft) 0 min
18.08.2012 09:37 21,6 C 20,4 C 22,3 C 72 % 42 % 1017 hPa 0,0 l/m 16,2 km/h (3 Bft) 0 min
18.08.2012 09:40 21,7 C 20,5 C 22,0 C 72 % 41 % 1017 hPa 0,0 l/m 14,5 km/h (3 Bft) 0 min
18.08.2012 09:43 21,6 C 20,5 C 22,0 C 71 % 41 % 1017 hPa 0,0 l/m 21,1 km/h (4 Bft) 0 min
18.08.2012 09:46 21,7 C 20,6 C 22,5 C 71 % 42 % 1017 hPa 0,0 l/m 11,1 km/h (2 Bft) 0 min
18.08.2012 09:49 21,7 C 20,7 C 22,6 C 72 % 42 % 1017 hPa 0,0 l/m 14,3 km/h (3 Bft) 0 min
18.08.2012 09:52 21,7 C 20,9 C 22,6 C 71 % 42 % 1017 hPa 0,0 l/m 15,9 km/h (3 Bft) 0 min
18.08.2012 09:55 21,7 C 21,0 C 22,8 C 71 % 42 % 1017 hPa 0,0 l/m 10,1 km/h (2 Bft) 0 min
18.08.2012 09:58 21,7 C 21,1 C 24,4 C 70 % 42 % 1017 hPa 0,0 l/m 18,1 km/h (3 Bft) 0 min
18.08.2012 10:01 21,8 C 21,2 C 24,7 C 70 % 42 % 1017 hPa 0,0 l/m 17,0 km/h (3 Bft) 0 min
18.08.2012 10:04 21,8 C 21,4 C 23,9 C 70 % 42 % 1017 hPa 0,0 l/m 9,7 km/h (2 Bft) 0 min
18.08.2012 10:07 21,8 C 21,5 C 23,4 C 70 % 42 % 1017 hPa 0,0 l/m 8,9 km/h (2 Bft) 0 min
18.08.2012 10:10 21,8 C 21,5 C 22,9 C 69 % 42 % 1017 hPa 0,0 l/m 9,8 km/h (2 Bft) 0 min
18.08.2012 10:13 21,8 C 21,6 C 23,1 C 68 % 42 % 1017 hPa 0,0 l/m 10,8 km/h (2 Bft) 0 min
18.08.2012 10:16 21,8 C 21,7 C 22,8 C 67 % 42 % 1017 hPa 0,0 l/m 19,6 km/h (3 Bft) 0 min
18.08.2012 10:19 21,8 C 21,6 C 22,6 C 65 % 42 % 1017 hPa 0,0 l/m 12,0 km/h (2 Bft) 0 min
18.08.2012 10:22 21,8 C 21,6 C 22,8 C 65 % 43 % 1017 hPa 0,0 l/m 12,5 km/h (3 Bft) 0 min
18.08.2012 10:25 21,8 C 21,6 C 23,1 C 65 % 43 % 1017 hPa 0,0 l/m 12,3 km/h (3 Bft) 0 min
18.08.2012 10:28 21,8 C 21,9 C 23,5 C 65 % 44 % 1017 hPa 0,0 l/m 14,0 km/h (3 Bft) 0 min
18.08.2012 10:31 21,8 C 22,0 C 23,9 C 63 % 44 % 1017 hPa 0,0 l/m 14,3 km/h (3 Bft) 0 min
18.08.2012 10:34 21,8 C 22,0 C 23,8 C 63 % 45 % 1017 hPa 0,0 l/m 16,7 km/h (3 Bft) 0 min
18.08.2012 10:37 21,8 C 22,2 C 23,6 C 63 % 46 % 1017 hPa 0,0 l/m 16,8 km/h (3 Bft) 0 min
18.08.2012 10:40 21,8 C 22,2 C 23,5 C 63 % 47 % 1017 hPa 0,0 l/m 18,3 km/h (3 Bft) 0 min
18.08.2012 10:43 21,8 C 22,2 C 23,5 C 63 % 47 % 1017 hPa 0,0 l/m 13,2 km/h (3 Bft) 0 min
18.08.2012 10:46 21,8 C 22,5 C 23,9 C 64 % 48 % 1017 hPa 0,0 l/m 8,1 km/h (2 Bft) 0 min
18.08.2012 10:49 21,8 C 22,6 C 23,7 C 64 % 49 % 1017 hPa 0,0 l/m 12,2 km/h (2 Bft) 0 min
18.08.2012 10:52 21,8 C 22,7 C 24,3 C 64 % 51 % 1017 hPa 0,0 l/m 11,7 km/h (2 Bft) 0 min
18.08.2012 10:55 21,8 C 22,8 C 24,3 C 64 % 51 % 1017 hPa 0,0 l/m 12,4 km/h (3 Bft) 0 min
18.08.2012 10:58 21,8 C 22,8 C 27,6 C 62 % 54 % 1017 hPa 0,0 l/m 17,8 km/h (3 Bft) 3 min
18.08.2012 11:01 21,8 C 22,9 C 28,5 C 63 % 54 % 1017 hPa 0,0 l/m 14,7 km/h (3 Bft) 3 min
18.08.2012 11:04 21,8 C 23,1 C 27,5 C 63 % 56 % 1017 hPa 0,0 l/m 10,6 km/h (2 Bft) 3 min
18.08.2012 11:07 21,8 C 23,1 C 25,6 C 60 % 56 % 1017 hPa 0,0 l/m 14,0 km/h (3 Bft) 3 min
18.08.2012 11:10 21,9 C 23,1 C 26,7 C 60 % 60 % 1017 hPa 0,0 l/m 12,4 km/h (3 Bft) 3 min
18.08.2012 11:13 21,9 C 23,2 C 25,8 C 59 % 62 % 1017 hPa 0,0 l/m 11,8 km/h (2 Bft) 3 min
18.08.2012 11:16 21,9 C 23,2 C 25,6 C 59 % 64 % 1017 hPa 0,0 l/m 10,5 km/h (2 Bft) 3 min
18.08.2012 11:19 21,9 C 23,4 C 25,4 C 60 % 64 % 1017 hPa 0,0 l/m 13,4 km/h (3 Bft) 3 min
18.08.2012 11:22 22,0 C 23,5 C 25,4 C 58 % 64 % 1017 hPa 0,0 l/m 17,3 km/h (3 Bft) 3 min
18.08.2012 11:25 22,0 C 23,4 C 24,7 C 58 % 65 % 1017 hPa 0,0 l/m 8,1 km/h (2 Bft) 3 min
18.08.2012 11:28 22,0 C 23,4 C 24,7 C 59 % 66 % 1017 hPa 0,0 l/m 8,3 km/h (2 Bft) 3 min
18.08.2012 11:31 22,0 C 23,6 C 25,4 C 59 % 67 % 1017 hPa 0,0 l/m 8,9 km/h (2 Bft) 3 min
18.08.2012 11:34 22,0 C 23,7 C 25,7 C 59 % 68 % 1017 hPa 0,0 l/m 10,7 km/h (2 Bft) 3 min
18.08.2012 11:37 22,1 C 23,8 C 27,3 C 58 % 69 % 1017 hPa 0,0 l/m 18,9 km/h (3 Bft) 3 min
18.08.2012 11:40 22,0 C 23,9 C 28,4 C 58 % 71 % 1017 hPa 0,0 l/m 9,2 km/h (2 Bft) 3 min
18.08.2012 11:43 22,1 C 24,0 C 27,6 C 56 % 72 % 1017 hPa 0,0 l/m 9,2 km/h (2 Bft) 3 min
18.08.2012 11:46 22,1 C 24,2 C 25,8 C 55 % 73 % 1017 hPa 0,0 l/m 15,7 km/h (3 Bft) 3 min
18.08.2012 11:49 22,1 C 24,2 C 25,2 C 55 % 73 % 1017 hPa 0,0 l/m 11,5 km/h (2 Bft) 3 min
18.08.2012 11:52 22,1 C 24,3 C 25,3 C 56 % 73 % 1017 hPa 0,0 l/m 11,4 km/h (2 Bft) 3 min
18.08.2012 11:55 22,1 C 24,3 C 25,4 C 56 % 73 % 1017 hPa 0,0 l/m 11,6 km/h (2 Bft) 3 min
18.08.2012 11:58 22,1 C 24,4 C 25,7 C 55 % 75 % 1017 hPa 0,0 l/m 15,4 km/h (3 Bft) 3 min
18.08.2012 12:01 22,1 C 24,6 C 25,9 C 54 % 77 % 1017 hPa 0,0 l/m 11,9 km/h (2 Bft) 3 min
18.08.2012 12:04 22,2 C 24,6 C 25,5 C 54 % 78 % 1017 hPa 0,0 l/m 8,0 km/h (2 Bft) 3 min
18.08.2012 12:07 22,2 C 24,7 C 25,9 C 55 % 81 % 1017 hPa 0,0 l/m 13,8 km/h (3 Bft) 3 min
18.08.2012 12:10 22,2 C 24,8 C 25,8 C 53 % 84 % 1017 hPa 0,0 l/m 9,3 km/h (2 Bft) 3 min
18.08.2012 12:13 22,3 C 24,8 C 26,4 C 53 % 84 % 1017 hPa 0,0 l/m 13,3 km/h (3 Bft) 3 min
18.08.2012 12:16 22,3 C 24,8 C 27,3 C 53 % 84 % 1017 hPa 0,0 l/m 14,5 km/h (3 Bft) 3 min
18.08.2012 12:19 22,4 C 24,9 C 28,4 C 52 % 95 % 1017 hPa 0,0 l/m 16,0 km/h (3 Bft) 3 min
18.08.2012 12:22 22,4 C 25,0 C 30,4 C 51 % 99 % 1016 hPa 0,0 l/m 15,2 km/h (3 Bft) 3 min
18.08.2012 12:25 22,4 C 25,1 C 29,3 C 51 % 100 % 1016 hPa 0,0 l/m 17,8 km/h (3 Bft) 3 min
18.08.2012 12:28 22,4 C 25,2 C 28,0 C 50 % 100 % 1016 hPa 0,0 l/m 16,6 km/h (3 Bft) 3 min
18.08.2012 12:31 22,4 C 25,2 C 29,0 C 50 % 100 % 1016 hPa 0,0 l/m 9,2 km/h (2 Bft) 3 min
18.08.2012 12:34 22,4 C 25,2 C 29,8 C 50 % 100 % 1016 hPa 0,0 l/m 10,3 km/h (2 Bft) 3 min
18.08.2012 12:37 22,5 C 25,3 C 29,9 C 50 % 100 % 1016 hPa 0,0 l/m 15,4 km/h (3 Bft) 3 min
18.08.2012 12:40 22,5 C 25,4 C 31,4 C 50 % 100 % 1016 hPa 0,0 l/m 10,8 km/h (2 Bft) 3 min
18.08.2012 12:43 22,5 C 25,5 C 30,6 C 50 % 100 % 1016 hPa 0,0 l/m 12,5 km/h (3 Bft) 3 min
18.08.2012 12:46 22,6 C 25,5 C 31,7 C 48 % 100 % 1016 hPa 0,0 l/m 10,1 km/h (2 Bft) 3 min
18.08.2012 12:49 22,6 C 25,6 C 30,6 C 48 % 100 % 1016 hPa 0,0 l/m 16,1 km/h (3 Bft) 3 min
18.08.2012 12:52 22,7 C 25,7 C 30,4 C 46 % 100 % 1016 hPa 0,0 l/m 15,0 km/h (3 Bft) 3 min
18.08.2012 12:55 22,8 C 25,8 C 31,7 C 47 % 100 % 1016 hPa 0,0 l/m 19,5 km/h (3 Bft) 3 min
18.08.2012 12:58 22,8 C 26,0 C 32,6 C 46 % 100 % 1016 hPa 0,0 l/m 10,6 km/h (2 Bft) 3 min
18.08.2012 13:01 22,8 C 25,9 C 31,9 C 45 % 100 % 1016 hPa 0,0 l/m 19,8 km/h (3 Bft) 3 min
18.08.2012 13:04 22,8 C 26,0 C 31,8 C 46 % 100 % 1016 hPa 0,0 l/m 13,8 km/h (3 Bft) 3 min
18.08.2012 13:07 22,8 C 26,0 C 29,5 C 45 % 100 % 1016 hPa 0,0 l/m 14,7 km/h (3 Bft) 3 min
18.08.2012 13:10 22,8 C 26,1 C 30,6 C 47 % 100 % 1016 hPa 0,0 l/m 8,1 km/h (2 Bft) 3 min
18.08.2012 13:13 22,8 C 26,2 C 30,0 C 47 % 100 % 1016 hPa 0,0 l/m 6,4 km/h (2 Bft) 3 min
18.08.2012 13:16 22,8 C 26,3 C 31,0 C 46 % 100 % 1016 hPa 0,0 l/m 10,6 km/h (2 Bft) 3 min
18.08.2012 13:19 22,8 C 26,3 C 30,3 C 45 % 100 % 1016 hPa 0,0 l/m 11,6 km/h (2 Bft) 3 min
18.08.2012 13:22 22,8 C 26,2 C 29,5 C 44 % 100 % 1016 hPa 0,0 l/m 11,7 km/h (2 Bft) 3 min
18.08.2012 13:25 22,8 C 26,3 C 28,1 C 44 % 100 % 1016 hPa 0,0 l/m 16,9 km/h (3 Bft) 3 min
18.08.2012 13:28 22,7 C 26,4 C 27,3 C 44 % 100 % 1016 hPa 0,0 l/m 13,3 km/h (3 Bft) 3 min
18.08.2012 13:31 22,6 C 26,4 C 27,2 C 44 % 100 % 1016 hPa 0,0 l/m 17,6 km/h (3 Bft) 3 min
18.08.2012 13:34 22,6 C 26,5 C 27,1 C 44 % 100 % 1016 hPa 0,0 l/m 17,6 km/h (3 Bft) 3 min
18.08.2012 13:37 22,6 C 26,6 C 27,6 C 45 % 100 % 1016 hPa 0,0 l/m 8,9 km/h (2 Bft) 3 min
18.08.2012 13:40 22,6 C 26,7 C 27,1 C 44 % 100 % 1016 hPa 0,0 l/m 10,5 km/h (2 Bft) 3 min
18.08.2012 13:43 22,6 C 26,7 C 27,1 C 44 % 100 % 1016 hPa 0,0 l/m 13,7 km/h (3 Bft) 3 min
18.08.2012 13:46 22,6 C 26,8 C 26,9 C 43 % 100 % 1016 hPa 0,0 l/m 21,5 km/h (4 Bft) 3 min
18.08.2012 13:49 22,6 C 26,8 C 27,3 C 41 % 100 % 1016 hPa 0,0 l/m 15,7 km/h (3 Bft) 3 min
18.08.2012 13:52 22,5 C 26,8 C 27,1 C 43 % 100 % 1016 hPa 0,0 l/m 10,7 km/h (2 Bft) 3 min
18.08.2012 13:55 22,5 C 26,8 C 26,9 C 42 % 100 % 1016 hPa 0,0 l/m 8,5 km/h (2 Bft) 3 min
18.08.2012 13:58 22,5 C 26,8 C 27,1 C 42 % 100 % 1016 hPa 0,0 l/m 8,2 km/h (2 Bft) 3 min
18.08.2012 14:01 22,5 C 26,9 C 27,7 C 41 % 100 % 1016 hPa 0,0 l/m 8,2 km/h (2 Bft) 3 min
18.08.2012 14:04 22,4 C 26,9 C 28,4 C 41 % 100 % 1016 hPa 0,0 l/m 12,3 km/h (3 Bft) 3 min
18.08.2012 14:07 22,5 C 26,8 C 28,8 C 41 % 100 % 1016 hPa 0,0 l/m 12,0 km/h (2 Bft) 3 min
18.08.2012 14:10 22,5 C 26,8 C 29,2 C 44 % 100 % 1016 hPa 0,0 l/m 12,0 km/h (2 Bft) 3 min
18.08.2012 14:13 22,5 C 26,9 C 28,6 C 42 % 100 % 1016 hPa 0,0 l/m 16,8 km/h (3 Bft) 3 min
18.08.2012 14:16 22,5 C 26,9 C 28,6 C 42 % 100 % 1016 hPa 0,0 l/m 12,8 km/h (3 Bft) 3 min
18.08.2012 14:19 22,5 C 27,0 C 30,1 C 43 % 100 % 1016 hPa 0,0 l/m 11,3 km/h (2 Bft) 3 min
18.08.2012 14:22 22,4 C 27,0 C 30,2 C 41 % 100 % 1016 hPa 0,0 l/m 13,0 km/h (3 Bft) 3 min
18.08.2012 14:25 22,4 C 27,0 C 32,0 C 41 % 100 % 1016 hPa 0,0 l/m 11,6 km/h (2 Bft) 3 min
18.08.2012 14:28 22,5 C 27,1 C 33,1 C 41 % 100 % 1016 hPa 0,0 l/m 5,5 km/h (1 Bft) 3 min
18.08.2012 14:31 22,4 C 27,1 C 34,4 C 42 % 100 % 1016 hPa 0,0 l/m 6,5 km/h (2 Bft) 3 min
18.08.2012 14:34 22,4 C 27,2 C 31,8 C 40 % 100 % 1016 hPa 0,0 l/m 12,1 km/h (2 Bft) 3 min
18.08.2012 14:37 22,4 C 27,1 C 31,2 C 39 % 100 % 1016 hPa 0,0 l/m 16,7 km/h (3 Bft) 3 min
18.08.2012 14:40 22,4 C 27,1 C 31,2 C 39 % 100 % 1016 hPa 0,0 l/m 14,7 km/h (3 Bft) 3 min
18.08.2012 14:43 22,4 C 27,2 C 31,2 C 41 % 100 % 1016 hPa 0,0 l/m 14,4 km/h (3 Bft) 3 min
18.08.2012 14:46 22,5 C 27,2 C 31,2 C 41 % 100 % 1016 hPa 0,0 l/m 7,8 km/h (2 Bft) 3 min
18.08.2012 14:49 22,5 C 27,2 C 31,2 C 41 % 100 % 1016 hPa 0,0 l/m 12,3 km/h (3 Bft) 3 min
18.08.2012 14:52 22,4 C 27,3 C 31,2 C 41 % 100 % 1016 hPa 0,0 l/m 7,5 km/h (2 Bft) 3 min
18.08.2012 14:55 22,5 C 27,4 C 31,2 C 40 % 100 % 1016 hPa 0,0 l/m 15,8 km/h (3 Bft) 3 min
18.08.2012 14:58 22,5 C 27,4 C 31,2 C 40 % 100 % 1016 hPa 0,0 l/m 11,0 km/h (2 Bft) 3 min
18.08.2012 15:01 22,4 C 27,4 C 31,2 C 40 % 100 % 1016 hPa 0,0 l/m 15,7 km/h (3 Bft) 3 min
18.08.2012 15:04 22,4 C 27,4 C 31,2 C 40 % 100 % 1016 hPa 0,0 l/m 11,5 km/h (2 Bft) 3 min
18.08.2012 15:07 22,4 C 27,2 C 31,2 C 40 % 100 % 1016 hPa 0,0 l/m 16,4 km/h (3 Bft) 3 min
18.08.2012 15:10 22,5 C 27,2 C 31,2 C 39 % 100 % 1016 hPa 0,0 l/m 11,6 km/h (2 Bft) 3 min
18.08.2012 15:13 22,5 C 27,2 C 31,2 C 39 % 100 % 1016 hPa 0,0 l/m 16,8 km/h (3 Bft) 3 min
18.08.2012 15:16 22,6 C 27,2 C 31,2 C 40 % 100 % 1016 hPa 0,0 l/m 10,7 km/h (2 Bft) 3 min
18.08.2012 15:19 22,5 C 27,3 C 31,2 C 41 % 100 % 1016 hPa 0,0 l/m 11,8 km/h (2 Bft) 3 min
18.08.2012 15:22 22,6 C 27,4 C 31,2 C 40 % 100 % 1016 hPa 0,0 l/m 10,9 km/h (2 Bft) 3 min
18.08.2012 15:25 22,5 C 27,4 C 31,2 C 40 % 100 % 1016 hPa 0,0 l/m 8,9 km/h (2 Bft) 3 min
18.08.2012 15:28 22,5 C 27,3 C 31,2 C 39 % 100 % 1016 hPa 0,0 l/m 12,0 km/h (2 Bft) 3 min
18.08.2012 15:31 22,5 C 27,3 C 31,2 C 39 % 100 % 1016 hPa 0,0 l/m 8,5 km/h (2 Bft) 3 min
18.08.2012 15:34 22,5 C 27,4 C 31,2 C 40 % 100 % 1016 hPa 0,0 l/m 8,9 km/h (2 Bft) 3 min
18.08.2012 15:37 22,6 C 27,4 C 31,2 C 38 % 100 % 1016 hPa 0,0 l/m 24,4 km/h (4 Bft) 3 min
18.08.2012 15:40 22,6 C 27,4 C 31,2 C 38 % 100 % 1016 hPa 0,0 l/m 15,4 km/h (3 Bft) 3 min
18.08.2012 15:43 22,5 C 27,4 C 31,2 C 39 % 100 % 1016 hPa 0,0 l/m 12,5 km/h (3 Bft) 3 min
18.08.2012 15:46 22,6 C 27,3 C 31,2 C 37 % 100 % 1016 hPa 0,0 l/m 6,3 km/h (2 Bft) 3 min
18.08.2012 15:49 22,6 C 27,3 C 31,2 C 38 % 100 % 1016 hPa 0,0 l/m 10,3 km/h (2 Bft) 3 min
18.08.2012 15:52 22,6 C 27,3 C 31,2 C 39 % 100 % 1016 hPa 0,0 l/m 11,6 km/h (2 Bft) 3 min
18.08.2012 15:55 22,7 C 27,3 C 31,2 C 38 % 100 % 1016 hPa 0,0 l/m 14,9 km/h (3 Bft) 3 min
18.08.2012 15:58 22,7 C 27,3 C 31,2 C 38 % 100 % 1016 hPa 0,0 l/m 9,6 km/h (2 Bft) 3 min
18.08.2012 16:01 22,8 C 27,3 C 31,2 C 38 % 100 % 1016 hPa 0,0 l/m 8,7 km/h (2 Bft) 3 min
18.08.2012 16:04 22,8 C 27,3 C 31,2 C 38 % 100 % 1016 hPa 0,0 l/m 10,8 km/h (2 Bft) 3 min
18.08.2012 16:07 22,8 C 27,4 C 31,2 C 37 % 100 % 1016 hPa 0,0 l/m 14,2 km/h (3 Bft) 3 min
18.08.2012 16:10 22,8 C 27,4 C 31,2 C 36 % 100 % 1016 hPa 0,0 l/m 10,6 km/h (2 Bft) 3 min
18.08.2012 16:13 22,8 C 27,4 C 31,2 C 37 % 100 % 1016 hPa 0,0 l/m 8,9 km/h (2 Bft) 3 min
18.08.2012 16:16 22,8 C 27,5 C 31,2 C 37 % 100 % 1016 hPa 0,0 l/m 11,2 km/h (2 Bft) 3 min
18.08.2012 16:19 22,9 C 27,5 C 31,2 C 37 % 100 % 1016 hPa 0,0 l/m 14,1 km/h (3 Bft) 3 min
18.08.2012 16:22 22,9 C 27,5 C 31,2 C 38 % 100 % 1015 hPa 0,0 l/m 6,9 km/h (2 Bft) 3 min
18.08.2012 16:25 22,9 C 27,4 C 31,2 C 38 % 100 % 1016 hPa 0,0 l/m 6,7 km/h (2 Bft) 3 min
18.08.2012 16:28 22,9 C 27,4 C 31,2 C 39 % 100 % 1015 hPa 0,0 l/m 5,3 km/h (1 Bft) 3 min
18.08.2012 16:31 22,9 C 27,4 C 31,2 C 38 % 100 % 1016 hPa 0,0 l/m 2,3 km/h (1 Bft) 3 min
18.08.2012 16:34 22,9 C 27,4 C 31,2 C 38 % 100 % 1015 hPa 0,0 l/m 2,3 km/h (1 Bft) 3 min
18.08.2012 16:37 22,9 C 27,3 C 31,2 C 36 % 100 % 1015 hPa 0,0 l/m 13,7 km/h (3 Bft) 3 min
18.08.2012 16:40 22,9 C 27,4 C 31,2 C 36 % 100 % 1015 hPa 0,0 l/m 11,8 km/h (2 Bft) 3 min
18.08.2012 16:43 22,9 C 27,4 C 29,9 C 37 % 100 % 1015 hPa 0,0 l/m 3,4 km/h (1 Bft) 3 min
18.08.2012 16:46 22,9 C 27,3 C 29,9 C 37 % 100 % 1015 hPa 0,0 l/m 13,4 km/h (3 Bft) 3 min
18.08.2012 16:49 22,9 C 27,3 C 29,3 C 36 % 100 % 1016 hPa 0,0 l/m 13,2 km/h (3 Bft) 3 min
18.08.2012 16:52 22,9 C 27,3 C 28,9 C 36 % 100 % 1016 hPa 0,0 l/m 9,8 km/h (2 Bft) 3 min
18.08.2012 16:55 22,9 C 27,3 C 28,4 C 36 % 96 % 1016 hPa 0,0 l/m 4,2 km/h (1 Bft) 3 min
18.08.2012 16:58 22,9 C 27,2 C 28,2 C 37 % 96 % 1016 hPa 0,0 l/m 0,7 km/h (0 Bft) 3 min
18.08.2012 17:01 22,9 C 27,2 C 28,0 C 37 % 84 % 1016 hPa 0,0 l/m 2,9 km/h (1 Bft) 3 min
18.08.2012 17:04 22,9 C 27,2 C 27,9 C 36 % 80 % 1016 hPa 0,0 l/m 5,2 km/h (1 Bft) 3 min
18.08.2012 17:07 23,0 C 27,3 C 27,9 C 35 % 77 % 1016 hPa 0,0 l/m 5,2 km/h (1 Bft) 3 min
18.08.2012 17:10 22,9 C 27,3 C 27,7 C 35 % 74 % 1015 hPa 0,0 l/m 10,5 km/h (2 Bft) 3 min
18.08.2012 17:13 23,0 C 27,4 C 27,5 C 34 % 72 % 1015 hPa 0,0 l/m 11,0 km/h (2 Bft) 3 min
18.08.2012 17:16 23,0 C 27,4 C 27,5 C 34 % 69 % 1015 hPa 0,0 l/m 11,0 km/h (2 Bft) 3 min
18.08.2012 17:19 23,0 C 27,4 C 27,3 C 34 % 69 % 1015 hPa 0,0 l/m 7,9 km/h (2 Bft) 3 min
18.08.2012 17:22 23,0 C 27,3 C 27,3 C 35 % 54 % 1015 hPa 0,0 l/m 7,1 km/h (2 Bft) 3 min
18.08.2012 17:25 23,1 C 27,3 C 26,9 C 35 % 53 % 1015 hPa 0,0 l/m 8,7 km/h (2 Bft) 3 min
18.08.2012 17:28 23,1 C 27,3 C 26,8 C 36 % 50 % 1015 hPa 0,0 l/m 6,0 km/h (2 Bft) 3 min
18.08.2012 17:31 23,0 C 27,3 C 26,7 C 35 % 49 % 1015 hPa 0,0 l/m 7,3 km/h (2 Bft) 3 min
18.08.2012 17:34 23,0 C 27,2 C 26,8 C 36 % 47 % 1015 hPa 0,0 l/m 4,2 km/h (1 Bft) 3 min
18.08.2012 17:37 23,1 C 27,2 C 26,7 C 35 % 46 % 1015 hPa 0,0 l/m 4,2 km/h (1 Bft) 3 min
18.08.2012 17:40 23,1 C 27,2 C 26,7 C 35 % 44 % 1016 hPa 0,0 l/m 5,4 km/h (1 Bft) 3 min
18.08.2012 17:43 23,2 C 27,2 C 26,5 C 35 % 44 % 1016 hPa 0,0 l/m 8,2 km/h (2 Bft) 3 min
18.08.2012 17:46 23,2 C 27,2 C 26,5 C 36 % 44 % 1016 hPa 0,0 l/m 3,9 km/h (1 Bft) 3 min
18.08.2012 17:49 23,2 C 27,1 C 26,4 C 37 % 44 % 1016 hPa 0,0 l/m 5,9 km/h (2 Bft) 3 min
18.08.2012 17:52 23,2 C 27,1 C 26,5 C 36 % 44 % 1016 hPa 0,0 l/m 7,2 km/h (2 Bft) 3 min
18.08.2012 17:55 23,2 C 27,1 C 26,4 C 37 % 44 % 1016 hPa 0,0 l/m 1,6 km/h (1 Bft) 3 min
18.08.2012 17:58 23,2 C 27,1 C 26,2 C 37 % 34 % 1016 hPa 0,0 l/m 10,0 km/h (2 Bft) 3 min
18.08.2012 18:01 23,3 C 27,0 C 26,0 C 36 % 32 % 1016 hPa 0,0 l/m 10,0 km/h (2 Bft) 3 min
18.08.2012 18:04 23,4 C 27,0 C 26,0 C 37 % 31 % 1016 hPa 0,0 l/m 4,1 km/h (1 Bft) 0 min
18.08.2012 18:07 23,4 C 27,0 C 25,8 C 37 % 30 % 1016 hPa 0,0 l/m 3,8 km/h (1 Bft) 3 min
18.08.2012 18:10 23,4 C 26,9 C 25,8 C 37 % 29 % 1016 hPa 0,0 l/m 2,5 km/h (1 Bft) 0 min
18.08.2012 18:13 23,3 C 26,9 C 25,6 C 38 % 29 % 1016 hPa 0,0 l/m 4,0 km/h (1 Bft) 3 min
18.08.2012 18:16 23,3 C 26,9 C 25,6 C 38 % 29 % 1016 hPa 0,0 l/m 4,6 km/h (1 Bft) 3 min
18.08.2012 18:19 23,3 C 26,8 C 25,3 C 37 % 28 % 1016 hPa 0,0 l/m 0,7 km/h (0 Bft) 3 min
18.08.2012 18:22 23,3 C 26,8 C 25,2 C 38 % 28 % 1015 hPa 0,0 l/m 0,6 km/h (0 Bft) 3 min
18.08.2012 18:25 23,3 C 26,7 C 24,8 C 38 % 26 % 1015 hPa 0,0 l/m 2,7 km/h (1 Bft) 3 min
18.08.2012 18:28 23,2 C 26,7 C 25,0 C 38 % 26 % 1015 hPa 0,0 l/m 3,9 km/h (1 Bft) 3 min
18.08.2012 18:31 23,2 C 26,7 C 24,8 C 38 % 26 % 1016 hPa 0,0 l/m 1,2 km/h (1 Bft) 3 min
18.08.2012 18:34 23,2 C 26,6 C 24,7 C 39 % 25 % 1016 hPa 0,0 l/m 4,0 km/h (1 Bft) 3 min
18.08.2012 18:37 23,2 C 26,5 C 24,7 C 39 % 25 % 1016 hPa 0,0 l/m 3,5 km/h (1 Bft) 3 min
18.08.2012 18:40 23,0 C 26,4 C 24,7 C 39 % 24 % 1016 hPa 0,0 l/m 3,3 km/h (1 Bft) 3 min
18.08.2012 18:43 23,0 C 26,4 C 24,5 C 39 % 24 % 1015 hPa 0,0 l/m 1,5 km/h (1 Bft) 3 min
18.08.2012 18:46 23,0 C 26,3 C 24,4 C 39 % 23 % 1015 hPa 0,0 l/m 1,5 km/h (1 Bft) 3 min
18.08.2012 18:49 23,0 C 26,3 C 24,1 C 39 % 22 % 1015 hPa 0,0 l/m 0,7 km/h (0 Bft) 3 min
18.08.2012 18:52 23,0 C 26,3 C 24,2 C 38 % 21 % 1015 hPa 0,0 l/m 0,7 km/h (0 Bft) 3 min
18.08.2012 18:55 23,0 C 26,2 C 24,0 C 38 % 21 % 1015 hPa 0,0 l/m 2,2 km/h (1 Bft) 3 min
18.08.2012 18:58 22,9 C 26,2 C 23,9 C 38 % 20 % 1015 hPa 0,0 l/m 2,7 km/h (1 Bft) 3 min
18.08.2012 19:01 22,9 C 26,1 C 23,8 C 39 % 19 % 1015 hPa 0,0 l/m 0,1 km/h (0 Bft) 3 min
18.08.2012 19:04 22,9 C 26,0 C 23,6 C 40 % 19 % 1015 hPa 0,0 l/m 0,3 km/h (0 Bft) 3 min
18.08.2012 19:07 22,9 C 26,0 C 23,5 C 40 % 18 % 1015 hPa 0,0 l/m 0,3 km/h (0 Bft) 3 min
18.08.2012 19:10 22,8 C 25,8 C 23,4 C 40 % 17 % 1015 hPa 0,0 l/m 0,1 km/h (0 Bft) 3 min
18.08.2012 19:13 22,8 C 25,7 C 23,3 C 40 % 16 % 1015 hPa 0,0 l/m 0,2 km/h (0 Bft) 3 min
18.08.2012 19:16 22,8 C 25,6 C 23,3 C 40 % 13 % 1016 hPa 0,0 l/m 0,0 km/h (0 Bft) 3 min
18.08.2012 19:19 22,8 C 25,6 C 22,9 C 41 % 13 % 1015 hPa 0,0 l/m 1,8 km/h (1 Bft) 3 min
18.08.2012 19:22 22,8 C 25,5 C 22,8 C 41 % 15 % 1016 hPa 0,0 l/m 0,6 km/h (0 Bft) 3 min
18.08.2012 19:25 22,8 C 25,4 C 22,5 C 41 % 13 % 1016 hPa 0,0 l/m 0,0 km/h (0 Bft) 3 min
18.08.2012 19:28 22,8 C 25,4 C 22,4 C 41 % 11 % 1016 hPa 0,0 l/m 0,3 km/h (0 Bft) 3 min
18.08.2012 19:31 22,8 C 25,3 C 22,3 C 41 % 11 % 1016 hPa 0,0 l/m 0,0 km/h (0 Bft) 3 min
18.08.2012 19:34 22,8 C 25,2 C 22,2 C 41 % 10 % 1016 hPa 0,0 l/m 0,7 km/h (0 Bft) 3 min
18.08.2012 19:37 22,8 C 25,2 C 22,1 C 41 % 9 % 1016 hPa 0,0 l/m 0,3 km/h (0 Bft) 3 min
18.08.2012 19:40 22,8 C 25,2 C 22,0 C 41 % 9 % 1016 hPa 0,0 l/m 1,6 km/h (1 Bft) 3 min
18.08.2012 19:43 22,8 C 25,1 C 21,8 C 42 % 8 % 1016 hPa 0,0 l/m 0,0 km/h (0 Bft) 3 min
18.08.2012 19:46 22,8 C 25,0 C 21,7 C 42 % 7 % 1016 hPa 0,0 l/m 0,0 km/h (0 Bft) 3 min
18.08.2012 19:49 22,8 C 25,0 C 21,6 C 42 % 7 % 1016 hPa 0,0 l/m 0,1 km/h (0 Bft) 3 min
18.08.2012 19:52 22,8 C 24,8 C 21,4 C 43 % 6 % 1016 hPa 0,0 l/m 0,0 km/h (0 Bft) 3 min
18.08.2012 19:55 22,8 C 24,8 C 21,2 C 43 % 5 % 1016 hPa 0,0 l/m 0,0 km/h (0 Bft) 3 min
18.08.2012 19:58 22,8 C 24,7 C 21,1 C 43 % 5 % 1016 hPa 0,0 l/m 0,0 km/h (0 Bft) 3 min
18.08.2012 20:01 22,8 C 24,7 C 21,0 C 43 % 4 % 1016 hPa 0,0 l/m 0,0 km/h (0 Bft) 3 min
18.08.2012 20:04 22,8 C 24,6 C 20,9 C 43 % 4 % 1016 hPa 0,0 l/m 0,0 km/h (0 Bft) 3 min
18.08.2012 20:07 22,8 C 24,5 C 20,8 C 43 % 3 % 1016 hPa 0,0 l/m 0,0 km/h (0 Bft) 0 min
18.08.2012 20:10 22,8 C 24,4 C 20,6 C 43 % 3 % 1016 hPa 0,0 l/m 0,0 km/h (0 Bft) 0 min
18.08.2012 20:13 22,7 C 24,3 C 20,5 C 43 % 2 % 1016 hPa 0,0 l/m 0,1 km/h (0 Bft) 0 min
18.08.2012 20:16 22,8 C 24,3 C 20,4 C 43 % 2 % 1016 hPa 0,0 l/m 0,0 km/h (0 Bft) 0 min
18.08.2012 20:19 22,8 C 24,2 C 20,3 C 43 % 1 % 1016 hPa 0,0 l/m 0,0 km/h (0 Bft) 0 min
18.08.2012 20:22 22,7 C 24,1 C 20,3 C 43 % 1 % 1016 hPa 0,0 l/m 0,0 km/h (0 Bft) 0 min
18.08.2012 20:25 22,7 C 24,0 C 20,3 C 43 % 1 % 1016 hPa 0,0 l/m 0,0 km/h (0 Bft) 0 min
18.08.2012 20:28 22,7 C 24,0 C 20,1 C 43 % 1 % 1016 hPa 0,0 l/m 0,0 km/h (0 Bft) 0 min
18.08.2012 20:31 22,7 C 23,9 C 20,0 C 43 % 0 % 1016 hPa 0,0 l/m 0,0 km/h (0 Bft) 0 min
18.08.2012 20:34 22,7 C 23,8 C 20,0 C 43 % 0 % 1016 hPa 0,0 l/m 0,0 km/h (0 Bft) 0 min
18.08.2012 20:37 22,7 C 23,8 C 19,8 C 43 % 0 % 1016 hPa 0,0 l/m 0,0 km/h (0 Bft) 0 min
18.08.2012 20:40 22,7 C 23,7 C 19,7 C 43 % 0 % 1016 hPa 0,0 l/m 0,0 km/h (0 Bft) 0 min
18.08.2012 20:43 22,6 C 23,6 C 19,7 C 43 % 0 % 1016 hPa 0,0 l/m 0,0 km/h (0 Bft) 0 min
18.08.2012 20:46 22,7 C 23,5 C 19,7 C 44 % 0 % 1016 hPa 0,0 l/m 0,0 km/h (0 Bft) 0 min
18.08.2012 20:49 22,6 C 23,4 C 19,7 C 44 % 0 % 1016 hPa 0,0 l/m 0,0 km/h (0 Bft) 0 min
18.08.2012 20:52 22,6 C 23,4 C 19,6 C 44 % 0 % 1016 hPa 0,0 l/m 0,0 km/h (0 Bft) 0 min
18.08.2012 20:55 22,6 C 23,3 C 19,6 C 44 % 0 % 1016 hPa 0,0 l/m 0,0 km/h (0 Bft) 0 min
18.08.2012 20:58 22,6 C 23,2 C 19,5 C 44 % 0 % 1016 hPa 0,0 l/m 0,0 km/h (0 Bft) 0 min
18.08.2012 21:01 22,6 C 23,2 C 19,5 C 43 % 0 % 1016 hPa 0,0 l/m 0,0 km/h (0 Bft) 0 min
18.08.2012 21:04 22,6 C 23,2 C 19,5 C 43 % 0 % 1016 hPa 0,0 l/m 0,0 km/h (0 Bft) 0 min
18.08.2012 21:07 22,6 C 23,2 C 19,4 C 43 % 0 % 1016 hPa 0,0 l/m 0,0 km/h (0 Bft) 0 min
18.08.2012 21:10 22,6 C 23,0 C 19,5 C 44 % 0 % 1016 hPa 0,0 l/m 0,0 km/h (0 Bft) 0 min
18.08.2012 21:13 22,5 C 23,0 C 19,3 C 44 % 0 % 1016 hPa 0,0 l/m 0,0 km/h (0 Bft) 0 min
18.08.2012 21:16 22,5 C 22,9 C 19,3 C 44 % 0 % 1016 hPa 0,0 l/m 0,0 km/h (0 Bft) 0 min
18.08.2012 21:19 22,5 C 22,8 C 19,2 C 45 % 0 % 1016 hPa 0,0 l/m 0,0 km/h (0 Bft) 0 min
18.08.2012 21:22 22,5 C 22,8 C 19,2 C 45 % 0 % 1016 hPa 0,0 l/m 0,0 km/h (0 Bft) 0 min
18.08.2012 21:25 22,5 C 22,7 C 19,1 C 45 % 0 % 1016 hPa 0,0 l/m 0,0 km/h (0 Bft) 0 min
18.08.2012 21:28 22,4 C 22,6 C 19,1 C 45 % 0 % 1016 hPa 0,0 l/m 0,0 km/h (0 Bft) 0 min
18.08.2012 21:31 22,4 C 22,6 C 19,0 C 46 % 0 % 1016 hPa 0,0 l/m 0,0 km/h (0 Bft) 0 min
18.08.2012 21:34 22,4 C 22,5 C 19,0 C 46 % 0 % 1016 hPa 0,0 l/m 0,0 km/h (0 Bft) 0 min
18.08.2012 21:37 22,4 C 22,4 C 18,9 C 47 % 0 % 1016 hPa 0,0 l/m 0,0 km/h (0 Bft) 0 min
18.08.2012 21:40 22,4 C 22,4 C 18,9 C 47 % 0 % 1016 hPa 0,0 l/m 0,0 km/h (0 Bft) 0 min
18.08.2012 21:43 22,4 C 22,3 C 18,9 C 49 % 0 % 1016 hPa 0,0 l/m 0,0 km/h (0 Bft) 0 min
18.08.2012 21:46 22,3 C 22,3 C 18,9 C 49 % 0 % 1016 hPa 0,0 l/m 0,0 km/h (0 Bft) 0 min
18.08.2012 21:49 22,4 C 22,1 C 18,9 C 50 % 0 % 1016 hPa 0,0 l/m 0,0 km/h (0 Bft) 0 min
18.08.2012 21:52 22,3 C 22,1 C 18,8 C 50 % 0 % 1016 hPa 0,0 l/m 0,0 km/h (0 Bft) 0 min
18.08.2012 21:55 22,3 C 22,0 C 18,8 C 50 % 0 % 1016 hPa 0,0 l/m 0,0 km/h (0 Bft) 0 min
18.08.2012 21:58 22,3 C 22,0 C 18,8 C 51 % 0 % 1016 hPa 0,0 l/m 0,0 km/h (0 Bft) 0 min
18.08.2012 22:01 22,2 C 21,9 C 18,7 C 51 % 0 % 1016 hPa 0,0 l/m 0,0 km/h (0 Bft) 0 min
18.08.2012 22:04 22,2 C 21,9 C 18,7 C 52 % 0 % 1016 hPa 0,0 l/m 0,0 km/h (0 Bft) 0 min
18.08.2012 22:07 22,2 C 21,8 C 18,6 C 52 % 0 % 1016 hPa 0,0 l/m 0,0 km/h (0 Bft) 0 min
18.08.2012 22:10 22,2 C 21,7 C 18,6 C 53 % 0 % 1017 hPa 0,0 l/m 0,0 km/h (0 Bft) 0 min
18.08.2012 22:13 22,2 C 21,7 C 18,5 C 53 % 0 % 1017 hPa 0,0 l/m 0,0 km/h (0 Bft) 0 min
18.08.2012 22:16 22,2 C 21,6 C 18,5 C 54 % 0 % 1017 hPa 0,0 l/m 0,0 km/h (0 Bft) 0 min
18.08.2012 22:19 22,1 C 21,6 C 18,4 C 54 % 0 % 1017 hPa 0,0 l/m 0,0 km/h (0 Bft) 0 min
18.08.2012 22:22 22,1 C 21,5 C 18,5 C 55 % 0 % 1017 hPa 0,0 l/m 0,0 km/h (0 Bft) 0 min
18.08.2012 22:25 22,1 C 21,4 C 18,4 C 55 % 0 % 1017 hPa 0,0 l/m 0,0 km/h (0 Bft) 0 min
18.08.2012 22:28 22,1 C 21,4 C 18,4 C 55 % 0 % 1017 hPa 0,0 l/m 0,0 km/h (0 Bft) 0 min
18.08.2012 22:31 22,0 C 21,3 C 18,4 C 55 % 0 % 1017 hPa 0,0 l/m 0,0 km/h (0 Bft) 0 min
18.08.2012 22:34 22,0 C 21,3 C 18,4 C 55 % 0 % 1017 hPa 0,0 l/m 0,0 km/h (0 Bft) 0 min
18.08.2012 22:37 22,0 C 21,2 C 18,4 C 55 % 0 % 1017 hPa 0,0 l/m 0,0 km/h (0 Bft) 0 min
18.08.2012 22:40 22,0 C 21,2 C 18,3 C 56 % 0 % 1017 hPa 0,0 l/m 0,0 km/h (0 Bft) 0 min
18.08.2012 22:43 22,0 C 21,2 C 18,3 C 55 % 0 % 1017 hPa 0,0 l/m 0,0 km/h (0 Bft) 0 min
18.08.2012 22:46 22,0 C 21,1 C 18,1 C 55 % 0 % 1017 hPa 0,0 l/m 0,0 km/h (0 Bft) 0 min
18.08.2012 22:49 21,9 C 21,1 C 18,2 C 56 % 0 % 1017 hPa 0,0 l/m 0,0 km/h (0 Bft) 0 min
18.08.2012 22:52 21,9 C 21,0 C 18,2 C 56 % 0 % 1017 hPa 0,0 l/m 0,0 km/h (0 Bft) 0 min
18.08.2012 22:55 21,9 C 21,0 C 18,2 C 56 % 0 % 1017 hPa 0,0 l/m 0,0 km/h (0 Bft) 0 min
18.08.2012 22:58 21,8 C 20,9 C 18,1 C 56 % 0 % 1017 hPa 0,0 l/m 0,0 km/h (0 Bft) 0 min
18.08.2012 23:01 21,8 C 20,9 C 18,0 C 56 % 0 % 1017 hPa 0,0 l/m 0,0 km/h (0 Bft) 0 min
18.08.2012 23:04 21,8 C 20,7 C 18,0 C 56 % 0 % 1017 hPa 0,0 l/m 0,0 km/h (0 Bft) 0 min
18.08.2012 23:07 21,8 C 20,7 C 17,9 C 56 % 0 % 1017 hPa 0,0 l/m 0,0 km/h (0 Bft) 0 min
18.08.2012 23:10 21,8 C 20,6 C 17,9 C 57 % 0 % 1017 hPa 0,0 l/m 0,0 km/h (0 Bft) 0 min
18.08.2012 23:13 21,8 C 20,6 C 17,8 C 57 % 0 % 1017 hPa 0,0 l/m 0,0 km/h (0 Bft) 0 min
18.08.2012 23:16 21,7 C 20,6 C 17,8 C 57 % 0 % 1017 hPa 0,0 l/m 0,0 km/h (0 Bft) 0 min
18.08.2012 23:19 21,7 C 20,5 C 17,9 C 57 % 0 % 1017 hPa 0,0 l/m 0,0 km/h (0 Bft) 0 min
18.08.2012 23:22 21,6 C 20,5 C 17,7 C 57 % 0 % 1017 hPa 0,0 l/m 0,0 km/h (0 Bft) 0 min
18.08.2012 23:25 21,6 C 20,5 C 17,6 C 57 % 0 % 1017 hPa 0,0 l/m 0,0 km/h (0 Bft) 0 min
18.08.2012 23:28 21,6 C 20,5 C 17,6 C 57 % 0 % 1017 hPa 0,0 l/m 0,0 km/h (0 Bft) 0 min
18.08.2012 23:31 21,6 C 20,4 C 17,6 C 57 % 0 % 1017 hPa 0,0 l/m 0,0 km/h (0 Bft) 0 min
18.08.2012 23:34 21,6 C 20,4 C 17,7 C 57 % 0 % 1017 hPa 0,0 l/m 0,0 km/h (0 Bft) 0 min
18.08.2012 23:37 21,6 C 20,3 C 17,6 C 57 % 0 % 1017 hPa 0,0 l/m 0,0 km/h (0 Bft) 0 min
18.08.2012 23:40 21,6 C 20,3 C 17,6 C 57 % 0 % 1017 hPa 0,0 l/m 0,0 km/h (0 Bft) 0 min
18.08.2012 23:43 21,6 C 20,3 C 17,6 C 57 % 0 % 1017 hPa 0,0 l/m 0,0 km/h (0 Bft) 0 min
18.08.2012 23:46 21,5 C 20,2 C 17,4 C 57 % 0 % 1017 hPa 0,0 l/m 0,0 km/h (0 Bft) 0 min
18.08.2012 23:49 21,5 C 20,2 C 17,5 C 57 % 0 % 1017 hPa 0,0 l/m 0,0 km/h (0 Bft) 0 min
18.08.2012 23:52 21,5 C 20,2 C 17,5 C 57 % 0 % 1017 hPa 0,0 l/m 0,0 km/h (0 Bft) 0 min
18.08.2012 23:55 21,5 C 20,1 C 17,5 C 58 % 0 % 1017 hPa 0,0 l/m 0,0 km/h (0 Bft) 0 min
18.08.2012 23:58 21,5 C 20,1 C 17,5 C 58 % 0 % 1017 hPa 0,0 l/m 0,0 km/h (0 Bft) 0 min
_ Min-Zeit 07:40 06:25 06:16 17:13 - 16:22 - 00:00 -
Minimum _ 19,5 C 15,3 C 14,7 C 34 % - 1015 hPa - 0,0 km/h (0 Bft) -
_ Max-Zeit 18:04 16:16 14:31 06:46 12:25 07:43 00:00 15:37 06:16
Maximum _ 23,4 C 27,5 C 34,4 C 88 % 100 % 1017 hPa 0,0 l/m 24,4 km/h
S-SO (4 Bft)
3 min
Durchschnitt _ 22,0 C 21,6 C 21,5 C 61 % #9:27 h 1016 hPa #0,0 l/m 4,8 km/h (1 Bft) #9:27 h